SCP
0 0 1 1 2 1 0 0 0 0 0 0 0 0 0 0 0 0 0 0 0 0 0 0 0 0 0 0 0 0 0 0 0 0 0 0 0 0 0 0 0 0 0
0 0 0 1 1 1 0 0 0 0 0 0 0 0 0 0 0 0 0 0 0 0 0 0 0 0 0 0 0 0 0 0 0 0 0 0 0 0 0 0 0 0 0
0 0 0 0 0 0 0 0 0 0 0 0 0 0 0 0 0 0 0 0 0 0 0 0 0 0 0 0 0 0 0 0 0 0 0 0 0 0 0 0 0 0 0
0 0 0 0 0 0 0 0 0 0 0 0 0 0 0 0 0 0 0 0 0 0 0 0 0 0 0 0 0 0 0 0 0 0 0 0 0 0 0 0 0 0 0
0 0 0 0 0 0 0 0 0 0 0 0 0 0 0 0 0 0 0 0 0 0 0 0 0 0 0 0 0 0 0 0 0 0 0 0 0 0 0 0 0 0 0
0 0 0 0 0 0 0 0 0 0 0 0 0 0 0 0 0 0 0 0 0 0 0 0 0 0 0 0 0 0 0 0 0 0 0 0 0 0 0 0 0 0 0
0 0 0 0 0 0 0 0 0 0 0 0 0 0 0 0 0 0 0 0 0 0 0 0 0 0 0 0 0 0 0 0 0 0 0 0 0 0 0 0 0 0 0
0 0 0 0 0 0 0 0 0 0 0 0 0 0 0 0 0 0 0 0 0 0 0 0 0 0 0 0 0 0 0 0 0 0 0 0 0 0 0 0 0 0 0
0 0 0 0 0 0 0 0 0 0 0 0 0 0 0 0 0 0 0 0 0 0 0 0 0 0 0 0 0 0 0 0 0 0 0 0 0 0 0 0 0 0 0
0 0 0 0 0 0 0 0 0 0 0 0 0 0 0 0 0 0 0 0 0 0 0 0 0 0 0 0 0 0 0 0 0 0 0 0 0 0 0 0 0 0 0
0 0 0 0 0 0 0 0 0 0 0 0 0 0 0 0 0 0 0 0 0 0 0 0 0 0 0 0 0 0 0 0 0 0 0 0 0 0 0 0 0 0 0
0 0 0 0 0 0 0 0 0 0 0 0 0 0 0 0 0 0 0 0 0 0 0 0 0 0 0 0 0 0 0 0 0 0 0 0 0 0 0 0 0 0 0
0 0 0 0 0 0 0 0 0 0 0 0 0 0 0 0 0 0 0 0 0 0 0 0 0 0 0 0 0 0 0 0 0 0 0 0 0 0 0 0 0 0 0
0 0 0 0 0 0 0 0 0 0 0 0 0 0 0 0 0 0 0 0 0 0 0 0 0 0 0 0 0 0 0 0 0 0 0 0 0 0 0 0 0 0 0
0 0 0 0 0 0 0 0 0 0 0 0 0 0 0 0 0 0 0 0 0 0 0 0 0 0 0 0 0 0 0 0 0 0 0 0 0 0 0 0 0 0 0
0 0 0 0 0 0 0 0 0 0 0 0 0 0 0 0 0 0 0 0 0 0 0 0 0 0 0 0 0 0 0 0 0 0 0 0 0 0 0 0 0 0 0
0 0 0 0 0 0 0 0 0 0 0 0 0 0 0 0 0 0 0 0 0 0 0 0 0 0 0 0 0 0 0 0 0 0 0 0 0 0 0 0 0 0 0
0 0 0 0 0 0 0 0 0 0 0 0 0 0 0 0 0 0 0 0 0 0 0 0 0 0 0 0 0 0 0 0 0 0 0 0 0 0 0 0 0 0 0
0 0 0 0 0 0 0 0 0 0 0 0 0 0 0 0 0 0 0 0 0 0 0 0 0 0 0 0 0 0 0 0 0 0 0 0 0 0 0 0 0 0 0
0 0 0 0 0 0 0 0 0 0 0 0 0 0 0 0 0 0 0 0 0 0 0 0 0 0 0 0 0 0 0 0 0 0 0 0 0 0 0 0 0 0 0
0 0 0 0 0 0 0 0 0 0 0 0 0 0 0 0 0 0 0 0 0 0 0 0 0 0 0 0 0 0 0 0 0 0 0 0 0 0 0 0 0 0 0
0 0 0 0 0 0 0 0 0 0 0 0 0 0 0 0 0 0 0 0 0 0 0 0 0 0 0 0 0 0 0 0 0 0 0 0 0 0 0 0 0 0 0
0 0 0 0 0 0 0 0 0 0 0 0 0 0 0 0 0 0 0 0 0 0 0 0 0 0 0 0 0 0 0 0 0 0 0 0 0 0 0 0 0 0 0
0 0 0 0 0 0 0 0 0 0 0 0 0 0 0 0 0 0 0 0 0 0 0 0 0 0 0 0 0 0 0 0 0 0 0 0 0 0 0 0 0 0 0
0 0 0 0 0 0 0 0 0 0 0 0 0 0 0 0 0 0 0 0 0 0 0 0 0 0 0 0 0 0 0 0 0 0 0 0 0 0 0 0 0 0 0
0 0 0 0 0 0 0 0 0 0 0 0 0 0 0 0 0 0 0 0 0 0 0 0 0 0 0 0 0 0 0 0 0 0 0 0 0 0 0 0 0 0 0
Wind_Speed
3 4 5 5 6 5 4 5 5 4 4 3 3 3 2 2 2 2 3 3 3 3 3 3 3 3 3 2 2 2 3 2 2 2 2 2 2 2 2 2 2 2 2
4 4 5 5 5 5 5 4 5 5 4 3 2 2 2 2 1 2 2 3 3 3 3 3 2 3 2 3 3 3 2 2 3 1 1 1 2 2 1 1 1 1 1
7 7 6 5 5 5 5 5 4 4 4 4 3 4 3 2 2 1 1 2 2 2 3 3 3 2 2 2 2 2 2 1 2 2 1 2 2 1 2 1 1 1 0
6 5 5 5 5 4 4 4 5 4 4 4 4 4 3 2 2 1 1 1 2 2 2 2 3 2 2 2 2 2 1 1 1 1 1 0 2 1 1 2 1 1 1
7 7 6 6 5 4 4 4 4 4 4 4 4 4 3 2 1 1 1 1 1 1 2 2 2 2 1 1 2 1 1 1 1 0 0 1 1 1 1 2 2 2 2
6 6 5 5 4 4 4 4 4 4 4 4 4 4 4 3 3 1 1 0 0 0 0 1 1 1 1 1 1 1 1 1 1 1 1 1 0 0 1 1 2 2 3
6 6 6 6 6 6 5 5 5 4 4 4 4 4 4 4 4 3 3 2 1 1 1 1 1 1 1 1 1 1 1 1 1 1 1 1 1 1 1 1 1 2 2
6 6 7 7 6 6 6 6 6 5 4 4 4 4 4 3 3 3 3 3 2 2 2 2 2 2 2 1 1 1 1 1 1 1 2 1 1 1 1 2 1 1 2
6 6 6 6 6 6 6 7 6 5 5 5 4 3 4 4 3 3 2 2 2 2 2 2 2 2 2 2 2 1 1 1 2 2 2 2 2 1 1 1 2 2 2
5 5 5 5 5 5 5 5 5 5 4 4 4 3 3 3 3 3 3 3 3 2 3 2 2 2 2 2 2 1 2 2 2 2 2 2 2 2 2 2 2 2 3
5 5 5 4 4 4 4 5 4 4 3 4 3 3 3 3 3 3 3 3 3 3 3 3 3 3 3 3 2 2 2 2 2 2 2 3 3 2 2 2 2 3 3
4 5 5 4 4 4 4 4 4 4 4 4 4 3 3 3 3 3 3 3 3 3 3 3 3 3 3 3 3 3 3 3 3 3 3 4 3 3 3 3 3 3 4
3 3 3 4 4 4 4 4 4 5 4 4 4 3 3 3 3 3 3 3 3 3 3 3 3 4 3 3 4 4 4 4 4 4 4 4 3 4 3 3 3 3 3
4 4 4 4 4 4 4 4 4 4 4 4 4 4 4 4 4 3 3 3 3 3 3 3 4 4 4 4 4 4 4 4 4 4 4 4 4 4 4 4 4 3 3
3 4 5 4 4 3 3 4 4 3 4 4 4 5 4 3 3 3 3 3 3 4 4 3 3 3 3 4 4 4 4 4 4 4 4 4 5 7 5 4 4 4 3
4 4 4 4 4 5 5 4 4 4 4 5 5 4 3 3 4 4 3 3 3 3 3 4 4 4 4 6 7 5 4 4 4 4 4 4 5 6 8 9 7 6 5
4 4 4 5 5 5 5 5 5 4 4 4 4 4 4 4 4 4 3 4 4 3 4 4 4 5 6 8 8 7 4 4 4 4 4 3 4 5 3 6 7 7 10
3 3 4 4 4 4 4 4 3 4 4 4 4 4 4 4 4 4 4 4 4 4 4 4 4 4 6 8 7 7 4 3 4 4 5 4 4 4 4 3 4 4 5
4 4 4 4 3 4 3 3 3 3 4 5 5 5 5 5 4 5 5 4 3 4 4 4 4 5 6 7 8 6 3 3 4 4 5 5 5 8 8 4 4 5 5
2 3 3 2 3 3 3 3 3 4 5 5 5 5 4 5 5 6 5 4 4 4 4 4 4 5 5 7 8 7 3 3 4 3 4 7 7 9 9 5 4 6 6
2 2 2 3 4 3 3 3 4 5 6 4 4 4 4 5 5 4 4 3 3 3 3 4 4 4 6 7 9 8 3 4 4 3 3 4 9 10 10 8 5 8 6
2 2 2 3 3 3 3 4 5 5 4 3 3 4 4 4 3 4 3 3 3 3 3 3 4 4 4 6 7 9 8 6 4 4 4 4 9 10 10 7 7 9 7
3 3 3 3 3 3 4 5 6 3 3 3 4 4 4 4 3 4 4 3 3 3 3 3 4 4 3 4 8 8 8 8 4 4 7 8 9 8 6 7 9 6 3
4 3 3 3 4 4 4 5 4 3 3 4 4 4 4 4 3 3 3 3 4 4 4 4 4 4 3 3 3 3 4 5 5 3 5 8 8 6 6 6 5 3 3
4 3 4 5 5 4 5 5 4 3 4 4 4 4 4 4 4 3 4 5 5 5 5 5 4 4 5 6 8 5 3 3 4 3 2 2 2 3 3 3 3 3 3
4 4 4 5 5 4 5 5 4 4 4 4 4 3 3 3 3 3 3 5 6 8 9 8 7 6 8 9 9 9 9 9 8 4 3 4 4 4 4 4 4 4 4
Wind_Direction
139 128 138 133 127 122 126 133 126 128 125 115 111 103 93 80 71 73 81 82 79 80 76 68 57 54 66 65 62 71 56 31 18 57 30 14 38 68 70 78 83 69 66
142 142 149 145 144 143 142 141 140 137 135 127 119 113 120 107 89 71 65 71 74 74 84 81 72 64 67 59 52 56 60 28 22 70 88 17 351 8 41 56 92 78 64
167 167 159 153 151 155 159 154 148 141 134 123 108 97 81 67 61 59 53 56 78 79 85 86 81 73 74 70 56 62 78 64 13 32 124 145 218 306 329 0 42 38 46
165 167 162 160 164 169 163 148 147 143 134 128 131 137 138 149 181 173 154 85 86 91 92 95 89 82 85 84 60 62 76 106 50 6 18 139 166 168 301 320 333 322 275
172 175 174 171 167 166 164 154 146 141 134 133 141 136 130 143 139 121 122 106 74 100 108 109 106 107 104 109 97 80 70 97 134 114 1 28 37 94 166 278 311 316 282
177 174 164 154 155 157 160 155 150 151 145 143 142 148 151 152 141 148 158 164 208 359 111 128 130 132 133 134 130 119 101 108 127 128 155 163 162 149 151 238 278 287 284
180 174 167 171 171 172 170 166 160 165 162 155 161 168 171 171 174 183 188 188 194 217 225 180 168 173 179 169 142 123 124 148 150 171 183 179 200 186 176 196 259 280 289
181 183 181 183 185 182 175 172 169 174 175 174 181 179 179 178 188 194 192 198 205 212 207 196 201 207 194 176 161 154 188 172 187 201 191 189 215 199 190 187 188 282 293
182 182 179 181 182 181 184 182 177 181 186 184 180 183 188 187 192 197 195 200 209 209 199 199 203 209 205 197 180 196 212 203 214 216 212 210 215 206 203 190 180 192 252
185 183 179 182 184 187 184 180 179 186 185 181 185 192 198 197 192 188 199 204 209 204 196 205 207 210 212 206 191 210 220 216 231 221 220 228 220 212 203 200 206 201 208
190 190 190 186 183 182 180 180 183 183 183 189 194 195 201 198 190 194 206 209 213 207 206 208 210 214 216 211 202 218 223 228 242 241 231 239 229 218 216 207 207 210 203
196 193 190 183 182 185 186 191 191 193 197 193 190 201 201 193 196 209 215 211 215 215 211 208 212 220 220 212 209 222 224 223 233 237 236 245 234 229 224 214 216 216 211
200 197 190 189 193 196 197 200 201 203 198 187 190 199 202 201 211 219 218 213 214 218 218 212 218 225 226 220 218 217 221 222 226 226 228 238 232 241 236 227 226 225 226
197 195 202 206 203 202 202 204 212 208 195 188 193 204 209 210 214 215 214 214 210 213 220 222 223 225 225 223 222 217 220 226 232 229 228 231 227 237 238 236 232 228 229
213 208 208 212 212 211 215 212 213 209 196 194 205 216 214 207 206 211 216 216 216 221 221 224 230 229 224 224 221 220 218 223 236 240 236 236 236 240 242 240 232 224 228
225 221 213 209 212 212 214 213 216 214 198 202 215 217 207 204 210 216 217 219 225 228 223 227 228 231 236 243 238 224 213 216 226 240 246 249 249 254 262 263 256 237 231
231 219 215 214 216 216 208 210 216 207 199 209 217 214 208 213 220 218 215 224 227 226 232 235 230 235 245 251 249 236 212 211 221 231 240 253 253 258 251 268 273 268 262
233 230 224 224 224 216 212 210 206 200 205 216 222 219 210 216 220 216 222 227 224 225 232 236 234 240 252 256 254 247 223 215 226 229 230 236 247 246 249 251 264 266 267
230 230 226 221 218 215 207 195 208 208 213 225 227 223 213 216 218 223 230 227 222 231 234 235 233 240 257 261 259 247 208 224 237 237 232 233 239 255 262 254 258 270 271
245 239 231 214 217 224 196 191 213 217 227 229 230 227 216 216 222 227 230 225 221 230 235 241 238 237 249 261 260 246 207 226 241 243 240 245 250 259 264 249 242 260 268
259 246 224 226 232 219 193 214 226 230 233 231 231 228 221 221 224 226 227 227 226 230 234 244 249 242 247 261 259 247 218 218 232 239 240 242 258 265 267 264 244 256 268
263 246 234 250 247 212 198 226 243 245 236 228 233 236 232 229 223 221 230 225 216 225 239 249 262 255 253 253 255 253 248 235 224 236 237 243 260 267 269 267 261 270 275
251 240 229 253 262 232 208 228 247 246 235 228 234 240 239 236 225 217 222 225 217 221 235 237 251 263 257 258 260 259 258 255 242 239 251 259 265 270 269 267 273 275 255
248 240 232 246 259 251 235 236 245 237 227 232 237 235 234 239 233 223 214 214 219 224 231 235 245 255 257 254 252 248 254 259 258 253 260 265 268 269 269 272 270 252 238
246 234 232 240 250 251 250 247 237 224 228 235 236 234 230 231 234 232 223 222 224 216 220 229 229 238 253 250 246 245 236 228 235 250 248 249 256 252 255 255 251 245 250
245 247 246 247 252 252 256 254 235 220 222 236 237 233 229 229 228 235 260 250 242 249 246 244 240 244 251 265 261 260 261 261 258 258 241 244 243 244 248 253 255 248 244